Flag for China Weather past 2 weeks in Changsha, Hunan, China

Now
50 °F

Passing clouds.


Feels Like: 48 °F
Forecast: 42 / 45 °F
Wind: 6 mph from Northeast

Location: Changsha

Current Time: Mar 4, 2015 at 11:59:10 AM

Latest Report: Mar 4, 2015 at 11:00 AM


Visibility: N/A

Pressure: 30.18 "Hg

Humidity: 58%

Dew point: 36 °F

Location of ChangshaLocation

Historic Weather in Changsha — Graph

°F

Changsha temperature yesterday

Maximum temperature yesterday: 54 °F (at 3:00 PM)
Minimum temperature yesterday: 45 °F (at 1:00 AM)
Average temperature yesterday: 49 °F

Past Weeks' High & Low Weather Summary

 TemperatureHumidityPressure
High72 °F (Feb 17, 2:00 PM)94% (Feb 19, 12:00 AM)30.45 "Hg (Feb 19, 12:00 AM)
Low39 °F (Feb 28, 11:00 AM)46% (Feb 17, 1:00 PM)29.89 "Hg (Feb 24, 4:00 PM)
Average49 °F84%30.08 "Hg
* Reported Feb 17 10:00 AM — Mar 4 10:00 AM, Changsha, Weather by CustomWeather, © 2015

Note: Actual official high and low records may vary slightly from our data, if they occured in-between our weather recording intervals... More about our weather records

Advertising

Changsha weather history for previous 24 hours

 ConditionsComfort  
Time TempWeatherWind HumidityBarometerVisibility
10:00 AM
Wed, Mar 4
48 °FSunny.6 mph58%30.18 "Hg10 mi
9:00 AM48 °FSunny.3 mph62%30.18 "Hg10 mi
8:00 AM48 °FSunny.3 mph62%30.12 "Hg10 mi
7:00 AM48 °FClear.6 mph66%30.12 "Hg6 mi
6:00 AM48 °FClear.6 mph66%30.09 "Hg6 mi
5:00 AM48 °FFog.3 mph87%30.07 "Hg3 mi
4:00 AM48 °FFog.3 mph87%30.09 "Hg2 mi
3:00 AM48 °FFog.3 mph87%30.09 "Hg2 mi
2:00 AM48 °FFog.1 mph87%30.09 "Hg2 mi
1:00 AM48 °FFog.No wind87%30.09 "Hg2 mi
12:00 AM48 °FFog.No wind87%30.09 "Hg3 mi
11:00 PM
Tue, Mar 3
50 °FFog.1 mph82%30.12 "Hg3 mi
10:00 PM50 °FFog.1 mph82%30.12 "Hg3 mi
9:00 PM50 °FFog.1 mph82%30.09 "Hg3 mi
8:00 PM52 °FFog.1 mph72%30.07 "Hg3 mi
7:00 PM52 °FClear.1 mph67%30.07 "Hg4 mi
6:00 PM54 °FClear.1 mph67%30.07 "Hg6 mi
5:00 PM54 °FClear.6 mph63%30.07 "Hg6 mi
4:00 PM54 °FClear.6 mph63%30.07 "Hg5 mi
3:00 PM54 °FScattered clouds.8 mph67%30.07 "Hg4 mi
2:00 PM52 °FPassing clouds.6 mph72%30.09 "Hg4 mi
1:00 PM52 °FPassing clouds.8 mph72%30.12 "Hg4 mi
12:00 PM50 °FClear.8 mph76%30.15 "Hg4 mi
11:00 AM48 °FScattered clouds.6 mph82%30.18 "Hg4 mi
Weather by CustomWeather, © 2015

See weather overviewHow to use our weather pages